Terminal Aerodrome Forecast
Issued by NWS

Home | Current Version | Previous Version | Text Only | Print | Product List | Glossary On
Versions: 1 2 3 4 5 6 7 8 9 10 11 12 13 14 15 16 17 18 19 20 21 22 23 24 25 26 27 28 29 30 31 32 33 34 35 36
000
FTUS45 KSLC 211001 AAB
TAFLGU
TAF AMD
KLGU 211001Z 2110/2206 16011KT P6SM VCSH SCT015 BKN035
      TEMPO 2110/2114 17016G24KT -RA BKN030
     FM211400 24011KT 6SM RA SCT010 BKN025
     FM212000 31012G20KT P6SM VCSH SCT025 BKN040=

USA.gov is the U.S. government's official web portal to all federal, state and local government web resources and services.